[[{"header":{"parameterUnit":"m.s-1","parameterCategory":1,"la1":30.2991,"la2":30.254,"lo1":-89.0895,"lo2":-89.0444,"dy":0.0017,"dx":0.0017,"nx":28,"ny":28,"refTime":"2024-03-12T21:00:00:Z","depth":0,"parameterNumber":2,"parameterNumberName":"U-component_of_WINDS"},"data":[0,0,0,0,0,0,0,0,0,0,0,0,0,0,0,0,0,0,0,0,0,0,0,0,0,0,0,0,0,0,0,0,0,0,0,0,0,0,0,0,0,0,0,0,0,0,0,0,0,0,0,0,0,0,0,0,0,0,-2.6872,-2.6873,0,-2.6953,-2.6954,-2.6955,-2.6913,-2.6911,-2.6908,-2.6906,-2.6993,-2.6997,-2.7001,0,0,0,0,0,0,0,0,0,0,0,0,0,-2.6683,-2.6687,-2.6872,-2.6873,-2.6874,-2.6953,-2.6954,-2.6956,-2.6913,-2.6911,-2.6908,-2.6905,-2.6991,-2.6996,-2.7002,0,0,0,0,0,0,0,0,0,0,0,0,0,-2.6765,-2.6688,-2.6872,-2.6862,-2.6862,-2.6953,-2.6954,-2.6956,-2.6914,-2.6911,-2.6907,-2.6904,-2.699,-2.6996,-2.7002,-2.7108,0,0,-2.7022,-2.7025,0,0,0,0,0,0,0,0,-2.676,-2.6772,-2.6863,-2.6863,-2.6863,-2.692,-2.6919,-2.7007,-2.6915,-2.6894,-2.6906,-2.6903,-2.6971,-2.6979,-2.7001,-2.7112,-2.7115,-2.7023,-2.7027,-2.7029,-2.7031,0,0,0,0,0,0,0,-2.6755,-2.6768,-2.6904,-2.6864,-2.6865,-2.6855,-2.6863,-2.6936,-2.695,-2.6896,-2.6893,-2.6903,-2.6971,-2.6995,-2.7003,-2.7117,-2.7022,-2.7028,-2.7032,-2.7035,-2.7318,-2.7321,0,0,0,0,0,0,-2.6749,-2.6764,-2.6902,-2.6907,-2.6803,-2.6861,-2.687,-2.6905,-2.6949,-2.6953,-2.6906,-2.6901,-2.6986,-2.6996,-2.7006,-2.7132,-2.7029,-2.7035,-2.7039,-2.7314,-2.7319,-2.7323,0,0,0,0,0,0,-2.6745,-2.6762,-2.6898,-2.6834,-2.6851,-2.6868,-2.6907,-2.6908,-2.6933,-2.6957,-2.6959,-2.6928,-2.6984,-2.6997,-2.7083,-2.7135,-2.7038,-2.7044,-2.731,-2.7316,-2.7321,-2.7386,0,0,0,0,0,0,-2.674,-2.6761,-2.68,-2.6836,-2.6855,-2.6973,-2.691,-2.6912,-2.6944,-2.6938,-2.6978,-2.6982,-2.6982,-2.7073,-2.7089,-2.7142,-2.7049,-2.7305,-2.7312,-2.7319,-2.7379,-2.7393,-2.7404,0,0,0,0,0,-2.6733,-2.6816,-2.6802,-2.6819,-2.6904,-2.6976,-2.6987,-2.6985,-2.6948,-2.6988,-2.7004,-2.6981,-2.7127,-2.7082,-2.71,-2.7155,-2.7302,-2.731,-2.7318,-2.7373,-2.739,-2.7404,0,0,0,0,0,0,-2.6787,-2.682,-2.6806,-2.6902,-2.6936,-2.6969,-2.7019,-2.7003,-2.7049,-2.7041,-2.7038,-2.7047,-2.7136,-2.7154,-2.7104,-2.726,-2.7209,-2.7221,-2.7244,-2.7261,-2.7273,-2.7267,-2.7055,0,0,0,0,0,-2.681,-2.6864,-2.6891,-2.6974,-2.6991,-2.7003,-2.7034,-2.7029,-2.7065,-2.7079,-2.7101,-2.7137,-2.7191,-2.7227,-2.7278,-2.7382,-2.739,-2.7429,-2.7441,-2.7452,-2.7462,-2.7518,-2.7535,-2.7349,-2.7349,-2.7349,0,0,-2.6858,-2.6883,-2.6918,-2.6985,-2.7011,-2.7068,-2.7015,-2.7078,-2.7121,-2.7089,-2.7171,-2.7188,-2.7229,-2.7324,-2.7367,-2.7342,-2.7515,-2.7462,-2.747,-2.7475,-2.7528,-2.7546,-2.7561,-2.7355,-2.7354,-2.7353,0,0,-2.6975,-2.6999,-2.707,-2.7098,-2.7137,-2.7144,-2.7161,-2.7196,-2.7206,-2.7288,-2.7266,-2.7317,-2.741,-2.744,-2.7467,-2.7596,-2.7576,-2.7613,-2.7679,-2.7734,-2.7748,-2.7761,-2.7807,-2.7823,-2.7623,-2.7623,-2.7623,0,-2.703,-2.7114,-2.711,-2.7174,-2.7204,-2.7178,-2.725,-2.7277,-2.7332,-2.7354,-2.7325,-2.7441,-2.7467,-2.7568,-2.76,-2.7623,-2.7643,-2.7608,-2.7746,-2.7759,-2.7771,-2.7815,-2.7832,-2.7627,-2.7627,-2.7627,-2.7626,0,-2.718,-2.7239,-2.7292,-2.7344,-2.7381,-2.7449,-2.7455,-2.7493,-2.7486,-2.7496,-2.758,-2.761,-2.7666,-2.769,-2.7684,-2.7791,-2.7774,-2.7746,-2.7695,-2.7793,-2.7834,-2.7851,-2.7633,-2.7632,-2.7631,-2.763,0,0,-2.7332,-2.7381,-2.7401,-2.7424,-2.7466,-2.7512,-2.758,-2.7634,-2.7666,-2.7706,-2.7762,-2.7842,-2.7816,-2.7847,-2.7844,-2.7892,-2.7992,-2.7858,-2.7859,-2.7882,-2.8112,-2.8132,-2.8151,-2.7979,-2.7983,-2.7985,-2.8108,0,-2.7452,-2.7568,-2.7566,-2.7674,-2.7729,-2.7705,-2.7764,-2.7797,-2.7808,-2.7857,-2.787,-2.7926,-2.7889,-2.7907,-2.7954,-2.797,-2.8038,-2.7961,-2.8032,-2.8035,-2.8022,-2.8172,-2.8194,-2.8308,-2.8124,-2.8127,-2.8129,0,-2.7606,-2.7649,-2.7763,-2.7796,-2.7819,-2.7872,-2.7922,-2.7968,-2.8005,-2.8011,-2.8045,-2.8035,-2.8104,-2.8051,-2.8147,-2.8095,-2.8124,-2.8137,-2.8141,-2.8147,-2.8087,-2.8182,-2.8345,-2.8362,-2.8154,-2.8152,-2.815,0,-2.7705,-2.7792,-2.787,-2.7891,-2.7933,-2.7971,-2.799,-2.8024,-2.8057,-2.8101,-2.8122,-2.8174,-2.8202,-2.8243,-2.8247,-2.8208,-2.8344,-2.8291,-2.835,-2.835,-2.8379,-2.8377,-2.8548,-2.84,-2.8399,-2.8399,-2.8399,0,-2.7838,-2.7908,-2.7915,-2.7964,-2.8042,-2.804,-2.8118,-2.8134,-2.8164,-2.8216,-2.82,-2.8249,-2.8251,-2.8302,-2.8306,-2.8385,-2.8398,-2.8405,-2.8405,-2.8406,-2.8405,-2.8424,-2.8416,-2.8404,-2.8402,-2.8402,-2.8401,0,-2.7961,-2.7969,-2.8053,-2.8086,-2.8096,-2.8152,-2.818,-2.8227,-2.8237,-2.8303,-2.8319,-2.8335,-2.8394,-2.8402,-2.8472,-2.8474,-2.8569,-2.8561,-2.8556,-2.8554,-2.8613,-2.8607,-2.8802,-2.8827,-2.8663,-2.8664,-2.8665,0,-2.8045,-2.8098,-2.8136,-2.8169,-2.819,-2.8244,-2.8277,-2.8277,-2.8313,-2.8359,-2.84,-2.8457,-2.8503,-2.8599,-2.8617,-2.8671,-2.8663,-2.8728,-2.8671,-2.8671,-2.8664,-2.866,-2.8665,-2.8739,-2.8741,-2.8742,-2.8743,0,-2.8193,-2.8194,-2.8241,-2.8291,-2.8331,-2.837,-2.8407,-2.8435,-2.844,-2.8481,-2.8541,-2.8576,-2.8647,-2.8704,-2.8756,-2.8777,-2.8762,-2.8761,-2.8778,-2.8779,-2.8773,-2.8776,-2.8585,-2.8757,-2.8755,-2.8754,-2.8754,-2.8753,-2.8298,-2.8344,-2.8378,-2.8432,-2.846,-2.8495,-2.854,-2.8556,-2.8605,-2.8661,-2.8659,-2.8725,-2.8761,-2.883,-2.8854,-2.8906,-2.8885,-2.8909,-2.8915,-2.8921,-2.8926,-2.8766,-2.8916,-2.8916,-2.8915,-2.8915,-2.8915,0,-2.8444,-2.8465,-2.8514,-2.8566,-2.8609,-2.859,-2.863,-2.8667,-2.8724,-2.8759,-2.8804,-2.8873,-2.8928,-2.8951,-2.9006,-2.9043,-2.9037,-2.9057,-2.9054,-2.9059,-2.8942,-2.8922,-2.9061,-2.9061,-2.9061,-2.9061,-2.9061,-2.9061,-2.8525,-2.8602,-2.8608,-2.8698,-2.8719,-2.8782,-2.8806,-2.8839,-2.8866,-2.8943,-2.8989,-2.9003,-2.9033,-2.909,-2.914,-2.9146,-2.9166,-2.9189,-2.9192,-2.9082,-2.9067,-2.9053,-2.9034,-2.9194,-2.9194,-2.9304,-2.9305,-2.9306]},{"header":{"parameterUnit":"m.s-1","parameterCategory":1,"la1":30.2991,"la2":30.254,"lo1":-89.0895,"lo2":-89.0444,"dy":0.0017,"dx":0.0017,"nx":28,"ny":28,"refTime":"2024-03-12T21:00:00:Z","depth":0,"parameterNumber":3,"parameterNumberName":"V-component_of_WINDS"},"data":[0,0,0,0,0,0,0,0,0,0,0,0,0,0,0,0,0,0,0,0,0,0,0,0,0,0,0,0,0,0,0,0,0,0,0,0,0,0,0,0,0,0,0,0,0,0,0,0,0,0,0,0,0,0,0,0,0,0,-0.2057,-0.2057,0,-0.2071,-0.2071,-0.2071,-0.2092,-0.2092,-0.2093,-0.2093,-0.2106,-0.2106,-0.2106,0,0,0,0,0,0,0,0,0,0,0,0,0,-0.2047,-0.2047,-0.2057,-0.2057,-0.2057,-0.2071,-0.2071,-0.2071,-0.2092,-0.2092,-0.2093,-0.2093,-0.2106,-0.2106,-0.2106,0,0,0,0,0,0,0,0,0,0,0,0,0,-0.2055,-0.2047,-0.2057,-0.2069,-0.207,-0.2071,-0.2071,-0.2071,-0.2092,-0.2092,-0.2093,-0.2093,-0.2106,-0.2106,-0.2106,-0.2096,0,0,-0.2107,-0.2107,0,0,0,0,0,0,0,0,-0.2054,-0.2055,-0.2067,-0.2068,-0.207,-0.208,-0.2072,-0.2079,-0.2091,-0.2084,-0.2093,-0.2093,-0.2097,-0.2098,-0.2099,-0.2096,-0.2097,-0.2107,-0.2107,-0.2107,-0.2107,0,0,0,0,0,0,0,-0.2054,-0.2055,-0.2062,-0.2067,-0.2069,-0.2073,-0.2075,-0.2074,-0.2087,-0.2084,-0.2086,-0.2087,-0.2098,-0.2099,-0.21,-0.2097,-0.2107,-0.2107,-0.2107,-0.2107,-0.2085,-0.2084,0,0,0,0,0,0,-0.2052,-0.2054,-0.2062,-0.2063,-0.2063,-0.2073,-0.2075,-0.2076,-0.2087,-0.2089,-0.2087,-0.2088,-0.2099,-0.21,-0.21,-0.2088,-0.2107,-0.2107,-0.2107,-0.2085,-0.2084,-0.2084,0,0,0,0,0,0,-0.2051,-0.2052,-0.2061,-0.2059,-0.206,-0.2073,-0.2074,-0.2076,-0.2078,-0.2089,-0.2091,-0.2086,-0.2099,-0.21,-0.2096,-0.2089,-0.2107,-0.2107,-0.2086,-0.2085,-0.2084,-0.2063,0,0,0,0,0,0,-0.2051,-0.2052,-0.2048,-0.2059,-0.206,-0.2057,-0.2073,-0.2076,-0.2078,-0.208,-0.2089,-0.2091,-0.21,-0.2096,-0.2096,-0.2089,-0.2107,-0.2087,-0.2085,-0.2084,-0.2064,-0.2061,-0.2059,0,0,0,0,0,-0.2051,-0.2042,-0.2048,-0.2049,-0.2056,-0.2057,-0.2058,-0.2069,-0.2077,-0.2073,-0.208,-0.209,-0.2089,-0.2096,-0.2096,-0.2088,-0.2087,-0.2086,-0.2084,-0.2065,-0.2062,-0.2059,0,0,0,0,0,0,-0.203,-0.2044,-0.2051,-0.2045,-0.205,-0.2061,-0.2056,-0.2065,-0.2067,-0.2069,-0.2082,-0.2084,-0.2078,-0.2083,-0.209,-0.2078,-0.209,-0.2088,-0.2075,-0.2072,-0.2069,-0.2068,-0.2107,0,0,0,0,0,-0.2025,-0.2025,-0.2036,-0.203,-0.2032,-0.2044,-0.2044,-0.2052,-0.2058,-0.206,-0.2067,-0.2071,-0.2072,-0.2072,-0.2073,-0.2065,-0.2067,-0.206,-0.2057,-0.2055,-0.2053,-0.2048,-0.2045,-0.2079,-0.2079,-0.2079,0,0,-0.2015,-0.2022,-0.2021,-0.2026,-0.2031,-0.203,-0.2045,-0.2044,-0.2043,-0.206,-0.2056,-0.2061,-0.2067,-0.2061,-0.2058,-0.2064,-0.2044,-0.2053,-0.2051,-0.2051,-0.2046,-0.2043,-0.204,-0.2078,-0.2079,-0.2079,0,0,-0.1995,-0.2001,-0.1996,-0.2,-0.2007,-0.2014,-0.2013,-0.2022,-0.2026,-0.2023,-0.2035,-0.2034,-0.2035,-0.2038,-0.204,-0.202,-0.203,-0.2021,-0.2006,-0.2001,-0.1998,-0.1996,-0.1988,-0.1985,-0.2019,-0.2019,-0.2019,0,-0.1981,-0.198,-0.1992,-0.199,-0.1991,-0.2006,-0.2001,-0.2004,-0.2011,-0.2011,-0.2018,-0.2019,-0.2024,-0.2018,-0.2013,-0.2015,-0.2013,-0.202,-0.1998,-0.1995,-0.1993,-0.1986,-0.1983,-0.2018,-0.2018,-0.2018,-0.2018,0,-0.1962,-0.1962,-0.1957,-0.1963,-0.1964,-0.196,-0.1971,-0.197,-0.1978,-0.1984,-0.198,-0.1987,-0.1989,-0.1988,-0.1996,-0.1983,-0.1987,-0.1995,-0.2007,-0.1989,-0.1982,-0.198,-0.2016,-0.2017,-0.2017,-0.2017,0,0,-0.1931,-0.1943,-0.1941,-0.1943,-0.1951,-0.1951,-0.1947,-0.1949,-0.1948,-0.1952,-0.1949,-0.1949,-0.1957,-0.1959,-0.1967,-0.1962,-0.1945,-0.1971,-0.1972,-0.1966,-0.1931,-0.1924,-0.192,-0.1951,-0.1951,-0.195,-0.193,0,-0.1912,-0.1907,-0.1917,-0.1909,-0.1908,-0.1922,-0.1919,-0.1923,-0.1928,-0.1928,-0.1934,-0.1934,-0.1944,-0.1946,-0.1942,-0.1948,-0.1938,-0.195,-0.1948,-0.1948,-0.1946,-0.1917,-0.191,-0.1891,-0.1928,-0.1927,-0.1927,0,-0.189,-0.1893,-0.1885,-0.1892,-0.1892,-0.1889,-0.1892,-0.1891,-0.1896,-0.19,-0.1902,-0.1911,-0.1907,-0.1919,-0.1913,-0.1921,-0.1921,-0.1924,-0.1923,-0.1923,-0.1936,-0.1916,-0.1885,-0.1882,-0.1923,-0.1923,-0.1924,0,-0.1867,-0.1869,-0.1864,-0.1866,-0.1874,-0.1872,-0.1875,-0.188,-0.1881,-0.1883,-0.1883,-0.1884,-0.1885,-0.1886,-0.1895,-0.1902,-0.1888,-0.1901,-0.1891,-0.1891,-0.1887,-0.1887,-0.1855,-0.1888,-0.1888,-0.1888,-0.1888,0,-0.1846,-0.184,-0.1854,-0.1851,-0.1844,-0.1856,-0.1849,-0.1854,-0.1858,-0.1856,-0.1867,-0.1865,-0.1877,-0.1876,-0.1883,-0.1877,-0.1877,-0.188,-0.1882,-0.1879,-0.1878,-0.1879,-0.188,-0.1887,-0.1887,-0.1887,-0.1887,0,-0.1819,-0.1828,-0.1824,-0.1832,-0.1834,-0.1829,-0.1836,-0.1833,-0.1839,-0.1836,-0.1836,-0.1845,-0.1844,-0.1853,-0.1854,-0.1858,-0.1849,-0.1853,-0.1847,-0.1849,-0.1838,-0.1839,-0.1805,-0.1801,-0.1836,-0.1836,-0.1836,0,-0.1805,-0.1801,-0.1808,-0.1808,-0.1811,-0.1809,-0.181,-0.182,-0.182,-0.1824,-0.1821,-0.182,-0.1821,-0.1818,-0.1825,-0.1825,-0.1829,-0.1817,-0.1829,-0.1826,-0.1829,-0.1829,-0.1828,-0.1815,-0.1814,-0.1814,-0.1814,0,-0.1778,-0.1782,-0.1782,-0.1783,-0.1783,-0.1785,-0.1787,-0.1786,-0.1797,-0.1796,-0.1795,-0.1795,-0.1796,-0.1795,-0.1796,-0.1799,-0.1808,-0.181,-0.1807,-0.1804,-0.1801,-0.1802,-0.184,-0.1811,-0.1811,-0.1811,-0.1811,-0.1811,-0.1757,-0.1753,-0.1758,-0.1757,-0.176,-0.1762,-0.1759,-0.1765,-0.1764,-0.1765,-0.1771,-0.1769,-0.1772,-0.1775,-0.1777,-0.1775,-0.1781,-0.1778,-0.1777,-0.1776,-0.1774,-0.1801,-0.1775,-0.1776,-0.1776,-0.1776,-0.1776,0,-0.173,-0.1733,-0.1732,-0.1735,-0.1734,-0.1743,-0.1745,-0.1744,-0.1742,-0.1745,-0.1744,-0.1743,-0.1742,-0.1748,-0.1748,-0.1745,-0.1749,-0.1744,-0.1745,-0.1745,-0.1769,-0.1771,-0.1741,-0.1741,-0.1741,-0.1741,-0.1741,-0.1741,-0.1716,-0.171,-0.1715,-0.171,-0.1714,-0.1712,-0.1712,-0.1713,-0.1716,-0.1713,-0.1712,-0.1716,-0.172,-0.172,-0.172,-0.1722,-0.1721,-0.1715,-0.1718,-0.174,-0.1743,-0.1747,-0.1748,-0.1715,-0.1715,-0.1694,-0.1694,-0.1694]}]]